Weather History for Page, AZ

Change the Weather History Date:

Saturday, December 7, 2013

  Actual Average Record
Temperature  
Mean Temperature 32 °F -  
Max Temperature 37 °F 47 °F 65 °F (1966)
Min Temperature 26 °F 28 °F 5 °F (1978)
Degree Days  
Heating Degree Days 34    
Moisture  
Dew Point 22 °F    
Average Humidity 71    
Maximum Humidity 89    
Minimum Humidity 32    
Precipitation  
Precipitation 0.08 in - - ()
Sea Level Pressure  
Sea Level Pressure 29.81 in    
Wind  
Wind Speed 3 mph (WNW)    
Max Wind Speed 17 mph    
Max Gust Speed 25 mph    
Visibility 6 miles    
Events Fog , Rain , Snow    
Averages and records for this station are not official NWS values.
T = Trace of Precipitation, MM = Missing Value Source: NWS Daily Summary

Daily Weather History Graph

Daily Weather History Graph

Search for Another Location

Airport:

Trip Planner

Search our weather history database for the weather conditions in past years. The results will help you decide how hot, cold, wet, or windy it might be!

Date:

Astronomy

Dec. 07, 2013 Rise Set
Actual Time 7:25 AM MST 5:09 PM MST
Civil Twilight 6:57 AM MST 5:37 PM MST
Nautical Twilight 6:24 AM MST 6:10 PM MST
Astronomical Twilight 5:53 AM MST 6:41 PM MST
Moon 11:18 AM MST (12/7) 10:48 PM MST (12/7)
Length of Visible Light 10h 40m
Length of Day
9h 43m
Waxing Crescent, 30% of the Moon is Illuminated
Dec 7
Waxing Crescent
Dec 9
First Quarter
Dec 17
Full
Dec 25
Last Quarter
Jan 1
New

Hourly Weather History & Observations

Time (MST) Temp. Windchill Dew Point Humidity Pressure Visibility Wind Dir Wind Speed Gust Speed Precip Events Conditions
12:53 AM 28.0 °F - 16.0 °F 61% 30.07 in 5.0 mi Calm Calm - N/A   Haze
1:49 AM 28.4 °F - 15.8 °F 59% 29.99 in 2.5 mi Calm Calm - N/A   Haze
1:53 AM 28.0 °F - 15.1 °F 58% 30.04 in 4.0 mi Calm Calm - N/A   Haze
2:53 AM 28.0 °F - 14.0 °F 56% 30.01 in 10.0 mi Calm Calm - N/A   Overcast
3:53 AM 28.0 °F - 15.1 °F 58% 29.99 in 6.0 mi Calm Calm - N/A   Haze
4:53 AM 26.1 °F - 12.9 °F 58% 29.96 in 10.0 mi Calm Calm - N/A   Clear
5:53 AM 26.1 °F - 14.0 °F 60% 29.94 in 10.0 mi Calm Calm - N/A   Clear
6:53 AM 27.0 °F - 15.1 °F 61% 29.93 in 5.0 mi Calm Calm - N/A   Haze
7:53 AM 28.0 °F 24.2 °F 15.1 °F 58% 29.93 in 4.0 mi WNW 3.5 mph - N/A   Haze
8:53 AM 28.9 °F - 14.0 °F 54% 29.91 in 8.0 mi Calm Calm - N/A   Overcast
9:53 AM 30.0 °F - 15.1 °F 54% 29.91 in 10.0 mi Calm Calm - N/A   Overcast
10:53 AM 34.0 °F 28.8 °F 15.1 °F 46% 29.88 in 10.0 mi ESE 5.8 mph - N/A   Partly Cloudy
11:53 AM 37.0 °F 31.6 °F 16.0 °F 42% 29.82 in 10.0 mi SE 6.9 mph - N/A   Overcast
12:53 PM 36.0 °F 30.3 °F 17.1 °F 46% 29.76 in 10.0 mi NNW 6.9 mph - N/A   Overcast
1:53 PM 37.0 °F 31.6 °F 19.0 °F 48% 29.72 in 10.0 mi NNW 6.9 mph - N/A   Overcast
2:53 PM 33.1 °F 28.7 °F 24.1 °F 70% 29.71 in 10.0 mi NNW 4.6 mph - N/A   Overcast
3:53 PM 33.1 °F 30.0 °F 25.0 °F 72% 29.71 in 9.0 mi NNW 3.5 mph - N/A   Overcast
4:30 PM 35.1 °F 27.4 °F 27.0 °F 72% 29.67 in 1.8 mi SSW 10.4 mph 19.6 mph 0.00 in Snow Light Snow
4:44 PM 34.0 °F 28.8 °F 28.9 °F 82% 29.68 in 3.0 mi West 5.8 mph - 0.00 in Snow Light Snow
4:53 PM 34.0 °F 28.8 °F 28.9 °F 82% 29.72 in 9.0 mi WNW 5.8 mph - 0.00 in   Overcast
5:34 PM 33.1 °F - 28.0 °F 82% 29.70 in 1.8 mi Calm Calm - 0.00 in Snow Light Snow
5:44 PM 33.1 °F 28.7 °F 28.0 °F 82% 29.70 in 1.0 mi Variable 4.6 mph - 0.01 in Snow Light Snow
5:53 PM 33.1 °F - 28.0 °F 82% 29.73 in 1.2 mi Calm Calm - 0.01 in Snow Light Snow
6:02 PM 33.1 °F 28.7 °F 28.9 °F 85% 29.70 in 3.0 mi SW 4.6 mph - 0.00 in Snow Light Snow
6:13 PM 33.1 °F 30.0 °F 28.9 °F 85% 29.69 in 5.0 mi Variable 3.5 mph - 0.00 in Snow Light Snow
6:53 PM 32.0 °F 27.5 °F 28.0 °F 85% 29.73 in 5.0 mi East 4.6 mph - 0.01 in   Scattered Clouds
6:55 PM 30.9 °F 26.2 °F 27.0 °F 85% 29.69 in 1.5 mi East 4.6 mph - N/A   Scattered Clouds
6:59 PM 30.0 °F - 27.0 °F 88% 29.70 in 0.8 mi Calm Calm - N/A   Mostly Cloudy
7:04 PM 30.0 °F 26.5 °F 26.1 °F 85% 29.70 in 0.5 mi ESE 3.5 mph - N/A Fog Light Freezing Fog
7:14 PM 30.0 °F - 27.0 °F 88% 29.69 in 0.5 mi Calm Calm - N/A Fog Light Freezing Fog
7:41 PM 30.0 °F 25.2 °F 26.1 °F 85% 29.70 in 1.2 mi South 4.6 mph - N/A   Scattered Clouds
7:43 PM 30.9 °F 27.5 °F 27.0 °F 85% 29.70 in 4.0 mi South 3.5 mph - N/A   Scattered Clouds
7:53 PM 30.9 °F 26.2 °F 26.1 °F 82% 29.73 in 10.0 mi Variable 4.6 mph - N/A   Partly Cloudy
8:53 PM 34.0 °F 25.5 °F 27.0 °F 75% 29.76 in 10.0 mi NW 11.5 mph 17.3 mph N/A   Mostly Cloudy
9:13 PM 32.0 °F 21.6 °F 28.0 °F 85% 29.76 in 10.0 mi NNW 15.0 mph 25.3 mph 0.00 in Rain Light Rain
9:20 PM 30.0 °F 18.3 °F 26.1 °F 85% 29.77 in 2.5 mi NNW 17.3 mph - 0.00 in Snow Light Snow
9:24 PM 28.9 °F 16.9 °F 26.1 °F 89% 29.79 in 0.8 mi NW 17.3 mph 24.2 mph 0.00 in Snow Light Snow
9:37 PM 28.9 °F 19.8 °F 26.1 °F 89% 29.80 in 0.2 mi NW 10.4 mph 20.7 mph 0.01 in Fog , Snow Heavy Snow
9:53 PM 28.9 °F 21.9 °F 26.1 °F 89% 29.83 in 0.5 mi WNW 6.9 mph - 0.04 in Fog , Snow Snow
10:09 PM 28.0 °F 20.0 °F 24.1 °F 85% 29.81 in 1.0 mi WNW 8.1 mph 17.3 mph 0.01 in Snow Light Snow
10:24 PM 28.0 °F 21.7 °F 24.1 °F 85% 29.81 in 2.5 mi West 5.8 mph - 0.01 in Snow Light Snow
10:32 PM 28.0 °F 20.0 °F 24.1 °F 85% 29.82 in 6.0 mi WSW 8.1 mph - 0.01 in Snow Light Snow
10:53 PM 28.9 °F 19.8 °F 21.0 °F 72% 29.86 in 10.0 mi West 10.4 mph 23.0 mph 0.01 in   Overcast
11:53 PM 28.9 °F 19.8 °F 19.0 °F 67% 29.85 in 10.0 mi West 10.4 mph 19.6 mph N/A   Mostly Cloudy